Wind_Speed
23 22 21 20 21 21 20 21 19 19 20 24 25 21 21 23 26 28 31 34 38 43 47 52 56 59 62 65 69 71 73 76 79 81 85 90 94 97 99 99 98 98 97 94
22 22 22 21 22 22 21 22 20 20 20 23 20 22 24 26 29 33 35 38 43 47 52 57 61 64 67 70 73 76 78 80 84 88 93 96 98 98 98 95 92 90 87 83
28 25 23 23 23 21 21 21 20 18 18 19 21 24 27 30 33 36 40 45 50 54 58 62 65 68 71 74 76 78 81 86 90 94 96 96 95 91 87 83 79 75 73 72
18 18 21 21 23 22 21 20 17 17 20 24 27 29 32 36 40 44 48 52 56 59 61 64 67 70 72 75 77 81 86 91 94 96 94 89 84 79 75 71 68 67 66 66
18 19 19 20 21 19 19 20 20 22 25 29 32 35 38 42 46 50 53 56 58 60 63 66 69 72 74 78 81 87 91 95 95 91 85 79 73 70 67 66 65 66 68 70
19 19 19 19 18 19 21 23 24 27 30 33 37 40 43 48 52 54 56 58 61 64 67 70 72 75 79 83 88 91 93 90 84 79 75 72 69 67 66 67 69 72 74 79
17 17 18 18 19 22 23 24 28 32 36 39 42 46 50 53 56 58 60 62 65 69 71 73 76 80 85 88 91 90 85 79 75 72 71 70 68 69 70 72 75 79 81 86
18 18 19 20 23 26 28 30 33 37 41 44 48 52 55 57 59 60 62 65 68 70 72 76 81 85 88 90 89 84 78 74 71 70 70 70 71 73 76 79 82 86 90 94
22 23 24 27 29 31 34 36 39 43 46 49 52 55 57 59 60 63 66 70 72 73 76 81 85 88 89 87 82 76 71 70 69 69 70 72 75 77 81 86 92 96 98 99
27 29 33 34 35 37 39 41 44 47 49 51 53 55 58 60 63 66 69 72 74 77 81 85 88 89 87 82 74 70 69 69 70 70 72 75 79 84 90 94 98 99 97 93
31 34 37 39 41 42 44 46 48 50 52 53 54 56 59 63 65 69 71 73 76 80 85 87 87 83 79 73 70 69 69 69 71 74 78 82 86 90 93 94 93 89 84 78
34 36 38 41 45 48 50 51 53 54 56 56 57 59 62 65 68 70 73 75 79 83 85 84 81 75 71 68 68 69 71 74 78 82 86 89 90 89 86 79 72 70 66 60
39 41 43 45 48 50 52 55 56 58 58 59 60 62 65 67 69 71 74 78 81 83 82 80 74 69 67 66 68 71 75 80 84 88 89 87 85 80 71 62 58 57 54 50
45 47 49 50 52 54 56 58 59 59 58 59 61 64 67 69 72 75 78 81 82 81 78 74 68 65 64 65 68 74 80 85 87 85 80 75 70 65 61 55 48 45 46 45
48 50 53 55 58 59 59 59 57 56 57 60 63 66 69 72 75 78 81 83 80 76 71 66 62 61 63 66 71 78 84 85 82 74 69 65 63 61 56 50 48 46 45 41
52 56 58 59 60 59 55 52 52 55 59 62 65 68 71 74 77 80 81 78 72 68 64 61 59 60 64 69 75 80 84 80 74 70 67 65 62 57 52 50 50 50 45 39
57 59 58 56 53 50 50 52 55 58 61 63 66 69 73 76 78 78 76 72 67 64 60 58 58 61 66 72 78 82 81 75 71 69 64 59 54 52 51 52 51 46 40 36
55 52 49 47 48 50 53 55 57 59 62 63 67 72 76 77 76 74 72 66 62 59 58 59 60 63 68 74 79 82 79 70 64 60 56 53 54 54 53 51 48 44 40 37
45 45 46 48 50 51 53 56 58 60 63 66 71 75 77 77 76 71 65 60 58 57 57 59 61 65 70 76 81 81 75 65 61 59 57 57 56 54 51 48 45 42 38 34
45 46 47 49 50 52 55 57 60 63 66 71 75 78 78 75 70 63 58 56 57 57 58 60 63 67 72 78 81 79 72 64 60 58 58 58 54 50 47 44 41 38 36 33
47 49 50 52 54 56 58 60 63 67 71 74 76 75 72 66 61 57 55 54 57 58 59 61 65 69 75 79 80 75 67 60 57 56 56 54 50 47 44 41 38 37 35 30
50 51 53 56 58 60 61 64 68 71 73 73 72 69 63 58 55 54 55 56 57 59 60 62 67 72 77 80 78 70 63 57 55 55 55 52 49 46 43 40 37 33 30 26
52 54 56 58 60 61 65 68 70 72 71 69 65 61 56 54 53 54 55 57 59 59 61 64 69 74 79 80 74 66 59 55 54 54 54 52 49 45 41 39 34 29 25 24
55 56 58 60 62 64 68 70 71 70 68 63 58 54 53 53 54 56 57 58 59 61 64 67 72 77 81 77 68 61 55 52 52 53 52 49 46 43 42 38 32 25 21 19
56 57 59 60 63 67 69 69 67 63 58 54 53 52 53 54 54 56 57 59 60 63 66 70 75 80 79 71 63 56 52 52 52 52 48 45 44 41 37 32 25 19 17 15
54 56 59 63 66 68 66 63 58 55 52 51 52 53 53 55 57 58 59 61 63 65 69 73 78 79 72 64 57 52 51 52 52 48 45 41 37 33 30 24 16 14 14 12
56 61 64 66 65 62 58 54 52 51 51 51 51 52 54 56 57 59 61 63 65 69 73 78 78 73 64 58 53 51 51 51 48 44 39 34 31 28 22 18 13 11 10 11
Wind_Direction
196 203 212 215 224 228 229 235 237 236 246 258 269 281 283 282 286 292 297 300 301 302 302 302 302 303 304 304 303 302 302 302 302 302 301 300 299 298 298 299 299 298 297 296
201 206 213 218 225 228 232 238 236 236 237 259 271 277 282 288 294 298 301 302 303 304 305 304 304 304 303 303 303 303 302 302 302 303 303 302 300 300 299 298 297 296 296 297
209 215 217 220 228 231 236 242 245 245 250 260 272 281 288 293 296 299 303 306 307 306 305 304 303 302 302 303 303 303 304 305 305 305 304 302 300 298 296 296 297 298 299 299
201 205 215 218 225 234 241 250 256 259 266 274 280 285 292 297 301 304 305 306 305 305 304 304 303 303 303 304 306 307 308 308 307 306 304 301 298 297 297 298 300 301 300 300
224 225 227 227 232 240 250 260 266 272 277 281 284 290 296 300 304 305 306 305 305 305 305 304 304 306 306 308 309 310 310 309 307 305 301 298 298 298 300 301 301 301 301 302
233 234 237 237 242 247 255 268 274 279 284 287 291 295 299 302 304 305 304 304 305 306 306 307 308 309 310 311 311 311 310 307 304 302 300 299 299 300 300 301 302 302 303 303
231 233 236 240 249 256 265 275 278 283 288 292 295 297 298 302 304 305 306 307 308 309 310 310 311 312 312 312 312 311 309 305 302 301 301 301 301 300 301 302 302 303 303 303
239 243 250 254 259 265 273 277 283 287 291 294 296 298 302 305 306 306 307 309 310 311 311 311 312 313 313 313 313 311 308 306 304 303 302 302 302 303 304 305 304 304 303 303
250 255 259 261 266 272 278 284 289 294 297 300 303 305 306 307 307 308 308 310 311 311 311 312 313 314 314 313 313 310 309 308 307 306 305 305 306 306 306 306 305 305 304 304
261 267 268 271 276 281 287 292 296 301 304 305 306 307 307 307 308 308 309 310 310 311 313 315 316 315 314 313 313 312 311 309 308 307 307 307 307 307 307 307 306 306 306 306
263 268 276 282 285 290 294 298 301 303 304 304 305 305 306 306 307 308 309 310 311 313 315 316 316 314 314 314 313 313 313 312 311 311 310 309 308 307 307 307 308 309 310 310
267 273 278 285 291 294 296 299 301 303 303 302 300 302 304 306 308 309 309 311 313 314 315 316 315 315 314 314 314 315 316 316 314 312 310 308 307 307 308 311 313 314 315 315
275 278 281 285 287 290 293 296 297 298 298 298 300 303 305 306 307 308 310 312 314 315 315 315 315 314 314 315 316 317 317 316 314 311 310 309 310 311 312 313 314 314 315 317
276 280 283 286 289 291 292 294 295 298 298 299 301 303 304 306 307 309 312 314 315 314 314 314 313 313 314 316 317 318 318 317 315 313 313 314 315 316 315 316 317 316 317 317
277 281 285 288 291 292 294 296 297 297 297 299 301 303 305 307 309 311 313 314 314 313 312 312 312 312 314 317 319 321 321 320 317 316 316 317 318 318 317 317 317 318 318 317
283 287 289 291 292 294 295 296 295 296 298 300 302 304 306 309 311 312 313 313 311 310 309 310 310 312 315 318 321 324 324 321 318 317 317 317 318 317 316 317 317 318 318 316
288 290 291 292 292 292 293 293 295 297 299 300 303 305 308 311 313 312 311 310 309 308 307 308 309 313 316 320 324 326 325 321 318 318 317 316 317 316 316 317 318 318 319 317
287 288 288 289 290 291 292 293 295 297 299 301 305 308 312 314 313 311 310 309 306 305 306 308 311 314 318 322 325 326 324 321 320 321 320 319 318 317 316 317 318 318 318 316
284 286 288 288 289 290 291 293 296 299 302 306 310 313 314 313 311 310 307 304 302 302 304 307 310 314 319 322 325 325 322 318 317 318 319 320 319 318 317 316 316 316 317 317
288 288 288 287 288 290 293 296 299 302 306 310 313 315 313 311 309 305 302 301 300 302 305 308 311 315 319 322 324 323 320 316 314 314 317 319 319 317 316 315 315 317 318 317
287 287 288 289 291 294 297 300 303 306 310 312 313 312 309 306 303 301 300 300 302 304 307 309 312 315 319 322 323 321 318 314 313 314 317 319 319 319 317 316 316 318 320 319
288 289 290 292 295 298 301 303 306 309 311 311 310 307 305 302 300 300 301 302 304 305 308 310 312 315 319 322 321 319 317 314 313 315 317 317 317 316 316 315 316 318 320 321
290 291 293 294 297 300 302 305 307 308 309 308 306 304 302 300 301 302 303 304 306 308 309 311 313 316 319 321 320 318 316 314 314 315 316 316 315 313 311 311 312 312 312 315
292 293 295 297 299 302 304 307 307 307 307 305 302 300 300 301 303 305 306 307 308 309 310 312 314 317 319 320 318 316 314 314 314 315 315 314 312 310 308 305 302 303 306 313
291 293 296 299 301 304 306 307 306 305 302 300 299 300 302 304 306 307 308 308 309 310 311 313 315 317 318 318 316 314 313 313 314 315 314 313 312 311 309 305 293 288 296 304
293 296 298 301 303 305 305 304 302 300 299 300 301 303 306 307 308 309 310 310 310 311 312 313 314 316 317 316 314 312 312 313 314 314 314 313 312 311 310 306 290 281 287 290
296 299 301 303 303 303 302 300 298 298 299 302 304 306 307 307 308 308 309 309 310 311 312 313 315 315 315 314 313 312 312 314 314 313 312 310 308 308 305 301 294 285 286 287
Height
5729 5732 5736 5738 5741 5744 5746 5747 5748 5749 5748 5744 5743 5745 5744 5741 5739 5737 5734 5731 5727 5723 5719 5713 5707 5700 5693 5685 5677 5670 5662 5655 5647 5639 5629 5619 5609 5597 5585 5574 5563 5552 5542 5532
5726 5729 5732 5734 5736 5738 5739 5740 5742 5742 5743 5739 5739 5738 5736 5734 5732 5728 5724 5720 5716 5711 5705 5699 5692 5685 5677 5670 5661 5653 5645 5636 5627 5618 5607 5595 5583 5572 5561 5550 5538 5528 5518 5510
5723 5725 5726 5728 5730 5732 5733 5733 5734 5736 5737 5735 5734 5732 5729 5726 5723 5719 5713 5708 5702 5697 5692 5685 5678 5670 5662 5654 5646 5637 5627 5616 5606 5596 5584 5571 5560 5548 5537 5527 5517 5509 5500 5492
5718 5720 5721 5726 5724 5725 5726 5726 5728 5729 5729 5728 5727 5724 5721 5716 5711 5706 5701 5695 5690 5683 5677 5670 5663 5655 5647 5638 5629 5619 5607 5596 5584 5572 5559 5547 5535 5524 5515 5506 5498 5490 5482 5473
5713 5715 5717 5719 5719 5720 5721 5720 5722 5722 5722 5719 5717 5714 5710 5705 5700 5695 5690 5684 5677 5670 5663 5655 5647 5639 5630 5621 5610 5598 5585 5571 5557 5545 5534 5524 5515 5505 5496 5488 5480 5472 5464 5456
5707 5709 5711 5714 5714 5715 5717 5715 5716 5714 5712 5709 5706 5703 5699 5693 5688 5683 5677 5670 5662 5655 5647 5639 5630 5621 5612 5601 5590 5577 5563 5548 5533 5522 5513 5504 5495 5487 5478 5470 5462 5454 5446 5437
5702 5703 5705 5708 5709 5709 5711 5710 5708 5704 5701 5697 5693 5690 5685 5679 5674 5668 5661 5654 5647 5639 5630 5622 5613 5603 5592 5581 5569 5554 5539 5526 5515 5504 5494 5485 5477 5468 5461 5453 5444 5435 5427 5418
5698 5699 5702 5702 5702 5702 5702 5700 5698 5694 5690 5686 5680 5675 5670 5664 5659 5653 5647 5639 5631 5622 5613 5603 5594 5584 5573 5560 5546 5532 5519 5508 5497 5487 5477 5468 5460 5452 5442 5431 5422 5412 5402 5392
5694 5695 5695 5694 5694 5693 5690 5688 5685 5681 5677 5671 5666 5660 5655 5649 5643 5637 5630 5622 5613 5604 5594 5585 5574 5563 5550 5536 5524 5512 5501 5490 5480 5471 5461 5451 5442 5432 5422 5410 5397 5385 5373 5362
5686 5685 5684 5683 5682 5680 5678 5675 5671 5667 5662 5657 5651 5645 5639 5633 5627 5621 5613 5604 5595 5585 5575 5564 5551 5537 5525 5514 5503 5493 5483 5474 5464 5455 5445 5435 5424 5412 5400 5385 5371 5357 5344 5333
5677 5675 5671 5669 5667 5665 5663 5660 5656 5652 5647 5642 5636 5631 5627 5621 5613 5605 5596 5587 5577 5566 5555 5543 5530 5517 5505 5496 5486 5477 5468 5458 5448 5438 5427 5416 5404 5391 5378 5364 5344 5330 5318 5308
5667 5665 5662 5659 5655 5652 5649 5646 5642 5637 5632 5629 5625 5620 5613 5605 5597 5589 5580 5571 5560 5549 5537 5525 5513 5500 5490 5480 5470 5461 5452 5442 5430 5418 5407 5394 5382 5373 5360 5344 5330 5314 5301 5293
5653 5652 5651 5649 5646 5643 5639 5634 5630 5625 5621 5616 5610 5603 5596 5589 5582 5574 5565 5554 5543 5530 5519 5508 5497 5486 5476 5467 5457 5446 5436 5425 5413 5399 5385 5371 5358 5346 5339 5334 5320 5307 5295 5286
5641 5639 5637 5635 5633 5629 5625 5620 5615 5610 5605 5600 5594 5588 5581 5573 5565 5556 5546 5535 5523 5512 5501 5491 5482 5473 5464 5455 5445 5434 5421 5407 5392 5378 5364 5351 5340 5330 5322 5315 5309 5300 5290 5281
5628 5626 5623 5620 5616 5611 5607 5603 5599 5595 5591 5585 5578 5571 5563 5555 5546 5537 5527 5516 5504 5493 5484 5476 5469 5460 5451 5442 5431 5418 5403 5388 5372 5359 5348 5337 5328 5318 5310 5302 5295 5289 5282 5275
5613 5611 5608 5604 5600 5596 5593 5589 5585 5581 5575 5569 5562 5554 5546 5538 5529 5519 5507 5497 5489 5479 5470 5462 5455 5446 5437 5426 5415 5402 5386 5370 5355 5344 5334 5324 5315 5306 5299 5292 5284 5277 5271 5265
5598 5595 5592 5588 5585 5582 5580 5576 5572 5566 5560 5553 5546 5538 5531 5522 5511 5500 5490 5480 5471 5463 5455 5449 5441 5431 5421 5410 5398 5385 5370 5355 5342 5330 5319 5311 5304 5296 5289 5282 5274 5267 5261 5256
5583 5581 5577 5574 5571 5568 5565 5561 5556 5551 5545 5538 5531 5522 5513 5504 5493 5482 5472 5463 5455 5449 5441 5434 5425 5416 5406 5395 5382 5369 5355 5342 5331 5320 5310 5301 5294 5286 5278 5271 5263 5257 5252 5248
5570 5567 5564 5561 5558 5554 5550 5546 5541 5536 5529 5521 5513 5503 5492 5482 5473 5464 5457 5451 5443 5438 5430 5420 5412 5402 5392 5380 5367 5354 5342 5331 5321 5311 5301 5292 5283 5275 5267 5260 5254 5248 5244 5239
5555 5552 5549 5547 5544 5540 5536 5531 5525 5519 5511 5503 5493 5482 5472 5462 5456 5450 5445 5437 5428 5422 5415 5406 5397 5388 5379 5368 5354 5340 5327 5317 5308 5300 5291 5281 5272 5265 5258 5251 5245 5240 5236 5232
5541 5538 5535 5532 5528 5524 5519 5514 5507 5499 5491 5482 5473 5464 5456 5447 5441 5436 5430 5424 5414 5406 5399 5391 5382 5373 5364 5353 5340 5327 5315 5305 5296 5288 5279 5270 5262 5255 5248 5242 5237 5232 5228 5224
5526 5523 5519 5515 5511 5506 5501 5495 5488 5480 5472 5463 5455 5447 5440 5433 5427 5421 5413 5407 5400 5392 5384 5376 5366 5357 5348 5337 5325 5312 5301 5291 5283 5275 5267 5259 5252 5245 5239 5233 5229 5225 5221 5218
5512 5509 5505 5501 5496 5491 5485 5478 5471 5463 5454 5446 5438 5431 5425 5419 5413 5407 5401 5391 5384 5377 5369 5361 5351 5342 5332 5321 5308 5296 5287 5278 5271 5263 5255 5248 5241 5234 5229 5225 5222 5219 5216 5214
5497 5493 5490 5485 5481 5475 5469 5461 5454 5445 5437 5429 5422 5416 5410 5405 5398 5388 5382 5376 5369 5361 5353 5344 5335 5326 5315 5304 5292 5282 5273 5266 5259 5251 5243 5236 5229 5223 5219 5215 5214 5212 5211 5209
5482 5478 5474 5470 5464 5457 5450 5443 5434 5427 5420 5413 5407 5401 5394 5388 5382 5376 5369 5362 5354 5346 5338 5328 5319 5309 5298 5287 5276 5267 5260 5253 5246 5239 5231 5224 5218 5212 5208 5205 5203 5204 5204 5204
5466 5462 5457 5452 5446 5438 5431 5424 5417 5410 5405 5399 5392 5386 5380 5373 5366 5360 5353 5346 5338 5330 5322 5313 5303 5292 5281 5271 5262 5254 5247 5240 5233 5226 5219 5212 5207 5203 5200 5197 5196 5197 5198 5198
5451 5446 5440 5433 5426 5420 5414 5408 5402 5396 5390 5385 5380 5372 5366 5360 5353 5347 5339 5331 5323 5314 5305 5295 5285 5273 5264 5256 5248 5241 5234 5227 5219 5213 5208 5203 5199 5196 5194 5192 5192 5192 5192 5192